Вернуться в каталог

FO-29

JAS 2

АктивенЛюбительское радиоPO
NORAD 24278·PAYLOAD·🇯🇵 Japan

Запущен Aug 17, 1996 с Tanegashima Space Center

Loading…

Ближайшие Пролёты (ближайшие 24 часа)

TLE

СвежийSource: Space-Track

Эпоха: Sep 14, 2026, 13:09 UTC

1 24278U 96046B   26257.54820134 -.00000014  00000-0  22835-4 0  9997
2 24278  98.5169  94.1692 0349149 224.4162 132.8488 13.53277998485257

Отслеживайте FO-29 в реальном времени с AllMySat

Download on the App Store